Location: Cucq
(50.4773°N, 1.6202°E)
Time: 06:27:12
(UTC+00:00)

Cosmos 1626 Rocket - Pass Details

Date: 07 August 2020
Orbit: 603 x 631 km, 82.5° (Epoch: 23 September)

Event Time Altitude Azimuth Distance (km) Brightness Sun altitude
Rises 03:06:58 0° 348° (NNW) 2,881 7.5 -11.6°
Reaches altitude 10° 03:09:12 10° 347° (NNW) 1,969 6.6 -11.3°
Maximum altitude 03:13:32 75° 263° (W) 633 3.5 -10.8°
Drops below altitude 10° 03:17:49 10° 178° (S) 1,946 5.7 -10.3°
Enters shadow 03:19:56 - 177° (S) 2,806 6.6 -10.1°
